Skip Page Navigation
NASA JPL Caltech
NASA Logo - Jet Propulsion Laboratory + View the NASA Portal
+ Center for Near-Earth Object Studies
JPL Home Earth Solar System Stars & Galaxies Technology
JPL Solar System Dynamics
BODIES ORBITS EPHEMERIDES TOOLS PHYSICAL DATA DISCOVERY FAQ SITE MAP
JPL Small-Body Database Browser
Search: [ help ]  
434803 (2006 RY58)
Classification: Main-belt Asteroid          SPK-ID: 2434803
Ephemeris | Orbit Diagram | Orbital Elements | Mission Design | Physical Parameters | Discovery Circumstances | Close-Approach Data ]

[ hide orbit diagram ]

For accurate long-term ephemerides, please instead use our Horizons system.This orbit viewer was implemented using two-body methods, and hence should not be used for determining accurate long-term trajectories (over several years or decades) or planetary encounter circumstances.


[ revert to old Java-based viewer ]

Orbital Elements at Epoch 2459000.5 (2020-May-31.0) TDB
Reference: JPL 16 (heliocentric ecliptic J2000)
 Element Value Uncertainty (1-sigma)   Units 
e .09531331931603322 5.8997e-08  
a 3.035202677697879 4.1018e-08 au
q 2.745907435689582 1.9422e-07 au
i 10.48070047433549 7.3179e-06 deg
node 13.87800359697469 3.0989e-05 deg
peri 296.7387759995308 4.962e-05 deg
M 260.303397652529 4.1621e-05 deg
tp 2459535.381810124437
(2021-Nov-16.88181012)
0.00022954 TDB
period 1931.434443208807
5.29
3.9152e-05
1.072e-07
d
yr
n .1863899658959745 3.7783e-09 deg/d
Q 3.324497919706175 4.4928e-08 au
  Orbit Determination Parameters
   # obs. used (total)      153  
   data-arc span      5878 days (16.09 yr)  
   first obs. used      2004-03-17  
   last obs. used      2020-04-20  
   planetary ephem.      DE431  
   SB-pert. ephem.      SB431-N16  
   condition code      0  
   norm. resid. RMS      .52792  
   source      ORB  
   producer      Otto Matic  
   solution date      2020-May-22 03:26:58  

Additional Information
 Earth MOID = 1.7525 au 
 Jupiter MOID = 2.00475 au 
 T_jup = 3.210 
[ show covariance matrix ]

Ephemeris | Orbit Diagram | Orbital Elements | Mission Design | Physical Parameters | Discovery Circumstances | Close-Approach Data ]

Physical Parameter Table
Parameter Symbol Value Units Sigma Reference Notes
absolute magnitude H 16.2   n/a MPO428053  

434803 (2006 RY58)          Discovered 2006-Sep-15 by Spacewatch at Kitt Peak
Reference: Last Updated: 2015-06-04

[ show close-approach data ]
Ephemeris | Orbit Diagram | Orbital Elements | Mission Design | Physical Parameters | Discovery Circumstances | Close-Approach Data ]
ABOUT SSD CREDITS/AWARDS PRIVACY/COPYRIGHT GLOSSARY LINKS
FirstGov 2020-Jul-10 00:01 UT
(server date/time)  
NASA Home Page
Site Manager:   Ryan S. Park
Webmaster  Alan B. Chamberlin